Location: Zürich
(47.3769°N, 8.5417°E)
Time: 00:37:58
(UTC+02:00)

ISS - Pass Details

Date: 31 May 2020
Orbit: 419 x 420 km, 51.6° (Epoch: 19 September)

Event Time Altitude Azimuth Distance (km) Brightness Sun altitude
Rises 22:13:13 0° 292° (WNW) 2,379 1.5 -8.4°
Reaches altitude 10° 22:15:24 10° 285° (WNW) 1,512 0.1 -8.7°
Maximum altitude 22:18:35 39° 215° (SW) 647 -2.9 -9.1°
Enters shadow 22:21:18 13° 148° (SSE) 1,323 -1.9 -9.4°
